TimeMDT,TemperatureF,Dew PointF,Humidity,Sea Level PressureIn,VisibilityMPH,Wind Direction,Wind SpeedMPH,Gust SpeedMPH,PrecipitationIn,Events,Conditions,WindDirDegrees,DateUTC
12:56 AM,39.9,34.0,79,29.95,10.0,West,9.2,-,N/A,,Clear,280,2011-10-21 06:56:00
1:56 AM,37.9,33.1,83,29.95,10.0,West,8.1,-,N/A,,Clear,280,2011-10-21 07:56:00
2:56 AM,39.0,34.0,82,29.95,10.0,West,9.2,-,N/A,,Clear,280,2011-10-21 08:56:00
3:56 AM,39.0,34.0,82,29.96,10.0,West,10.4,-,N/A,,Clear,280,2011-10-21 09:56:00
4:56 AM,39.9,34.0,79,29.98,10.0,West,10.4,-,N/A,,Clear,280,2011-10-21 10:56:00
5:56 AM,39.0,34.0,82,30.02,10.0,West,10.4,-,N/A,,Clear,270,2011-10-21 11:56:00
6:56 AM,39.0,34.0,82,30.04,10.0,WNW,6.9,-,N/A,,Clear,290,2011-10-21 12:56:00
7:56 AM,37.9,34.0,86,30.06,10.0,WNW,9.2,-,N/A,,Clear,290,2011-10-21 13:56:00
8:56 AM,45.0,37.0,74,30.07,10.0,WNW,10.4,-,N/A,,Clear,290,2011-10-21 14:56:00
9:56 AM,48.9,37.0,64,30.08,10.0,WNW,11.5,-,N/A,,Clear,300,2011-10-21 15:56:00
10:56 AM,54.0,37.0,53,30.08,10.0,WNW,12.7,-,N/A,,Clear,290,2011-10-21 16:56:00
11:56 AM,59.0,37.0,44,30.07,10.0,NNW,12.7,-,N/A,,Clear,330,2011-10-21 17:56:00
12:56 PM,60.1,37.0,42,30.08,10.0,NW,9.2,-,N/A,,Clear,310,2011-10-21 18:56:00
1:56 PM,59.0,36.0,42,30.08,10.0,NW,10.4,-,N/A,,Clear,310,2011-10-21 19:56:00
2:56 PM,62.1,37.0,39,30.07,10.0,NNW,12.7,-,N/A,,Clear,330,2011-10-21 20:56:00
3:56 PM,60.1,37.0,42,30.08,10.0,NW,6.9,-,N/A,,Clear,320,2011-10-21 21:56:00
4:56 PM,59.0,37.0,44,30.08,10.0,NNW,3.5,-,N/A,,Clear,340,2011-10-21 22:56:00
5:56 PM,55.0,36.0,49,30.10,10.0,NNW,3.5,-,N/A,,Clear,330,2011-10-21 23:56:00
7:56 PM,46.9,36.0,66,30.12,10.0,NE,4.6,-,N/A,,Clear,50,2011-10-22 01:56:00
8:56 PM,39.0,33.1,79,30.13,10.0,South,3.5,-,N/A,,Clear,170,2011-10-22 02:56:00
9:56 PM,37.0,32.0,82,30.12,10.0,SSE,5.8,-,N/A,,Clear,160,2011-10-22 03:56:00
10:56 PM,37.0,32.0,82,30.10,10.0,South,6.9,-,N/A,,Clear,190,2011-10-22 04:56:00
11:56 PM,37.0,32.0,82,30.09,10.0,South,5.8,-,N/A,,Clear,170,2011-10-22 05:56:00